Date String (YYYY-MM-DD hh:mm:ss) UTC,Instrument flags,Ambient pressure (hPa),Sample flow (lpm),Bypass flow (lpm),Sample temperature (°C),Ambient temperature (°C),ASC tube jacket temperature (°C),LED temperature (°C),Box temperature (°C),Sample RH (%),Span deviation,Mass concentration (μg/m³),Mass concentration (μg/m³),Mass concentration (μg/m³)
DateTimeUTC,F1_M11,P_M11,Q1_M11,Q2_M11,T1_M11,T2_M11,T3_M11,T4_M11,T5_M11,U1_M11,ZSPAN_M11,X0_M11,X2_M11,X1_M11
2022-03-02 06:00:00,,0830.4,5.01,0.00,28.9,28.1,00.0,38.1,30.6,08.8,0000.0,0001.03,0000.60,0000.39
2022-03-02 06:01:00,,0830.6,4.99,0.00,28.9,28.1,00.0,38.0,30.6,08.8,0000.0,0001.02,0000.59,0000.39
2022-03-02 06:02:00,,0830.6,5.00,0.00,28.9,28.1,00.0,38.0,30.6,08.9,0000.0,0000.99,0000.57,0000.38
2022-03-02 06:03:00,,0830.4,5.02,0.00,28.9,28.1,00.0,38.0,30.6,08.9,0000.0,0000.95,0000.56,0000.37
2022-03-02 06:04:00,,0830.4,5.00,0.00,28.9,28.1,00.0,38.0,30.6,09.1,0000.0,0000.93,0000.55,0000.37
2022-03-02 06:05:00,,0830.3,4.99,0.00,28.9,28.1,00.0,38.0,30.6,09.2,0000.0,0000.88,0000.53,0000.37
2022-03-02 06:06:00,,0830.4,5.00,0.00,28.9,28.1,00.0,38.0,30.5,08.9,0000.0,0000.83,0000.50,0000.36
2022-03-02 06:07:00,,0830.4,5.02,0.00,28.9,28.1,00.0,38.0,30.5,08.8,0000.0,0000.92,0000.54,0000.37
2022-03-02 06:08:00,,0830.3,4.99,0.00,28.9,28.1,00.0,38.0,30.6,08.8,0000.0,0000.98,0000.57,0000.37
2022-03-02 06:09:00,,0830.3,4.99,0.00,28.9,28.1,00.0,38.0,30.5,08.9,0000.0,0001.00,0000.58,0000.38
2022-03-02 06:10:00,,0830.4,5.00,0.00,28.9,28.0,00.0,38.0,30.5,09.1,0000.0,0000.96,0000.55,0000.37
2022-03-02 06:11:00,,0830.4,5.01,0.00,28.9,28.0,00.0,38.0,30.5,08.9,0000.0,0000.84,0000.53,0000.37
2022-03-02 06:12:00,,0830.4,4.99,0.00,28.8,28.0,00.0,38.0,30.5,08.8,0000.0,0000.83,0000.52,0000.36
2022-03-02 06:13:00,,0830.4,5.02,0.00,28.8,28.0,00.0,38.0,30.5,08.8,0000.0,0000.87,0000.53,0000.36
2022-03-02 06:14:00,,0830.4,4.99,0.00,28.8,28.0,00.0,38.0,30.5,08.8,0000.0,0000.91,0000.55,0000.36
2022-03-02 06:15:00,,0830.4,4.99,0.00,28.8,28.0,00.0,37.9,30.5,08.9,0000.0,0000.90,0000.54,0000.36
2022-03-02 06:16:00,,0830.3,5.02,0.00,28.8,28.0,00.0,37.9,30.5,09.0,0000.0,0000.93,0000.55,0000.36
2022-03-02 06:17:00,,0830.4,4.99,0.00,28.8,28.0,00.0,37.9,30.4,08.9,0000.0,0000.91,0000.55,0000.37
2022-03-02 06:18:00,,0830.4,4.99,0.00,28.8,28.0,00.0,37.9,30.5,09.0,0000.0,0000.79,0000.50,0000.37
2022-03-02 06:19:00,,0830.3,5.00,0.00,28.8,28.0,00.0,37.9,30.5,09.0,0000.0,0000.74,0000.47,0000.36
2022-03-02 06:20:00,,0830.3,5.01,0.00,28.8,28.0,00.0,37.9,30.5,09.0,0000.0,0000.83,0000.48,0000.36
2022-03-02 06:21:00,,0830.3,5.00,0.00,28.8,28.0,00.0,37.9,30.4,09.0,0000.0,0000.85,0000.48,0000.36
2022-03-02 06:22:00,,0830.2,4.99,0.00,28.8,27.9,00.0,37.9,30.4,09.0,0000.0,0001.35,0000.51,0000.38
2022-03-02 06:23:00,,0830.2,5.01,0.00,28.8,27.9,00.0,37.9,30.4,09.0,0000.0,0002.02,0000.54,0000.38
2022-03-02 06:24:00,,0830.2,5.00,0.00,28.7,27.9,00.0,37.9,30.4,09.0,0000.0,0002.06,0000.55,0000.39
2022-03-02 06:25:00,,0830.2,4.99,0.00,28.7,27.9,00.0,37.9,30.4,09.0,0000.0,0002.04,0000.55,0000.40
2022-03-02 06:26:00,,0830.2,5.00,0.00,28.7,27.9,00.0,37.9,30.4,09.0,0000.0,0002.03,0000.54,0000.39
2022-03-02 06:27:00,,0830.2,5.01,0.00,28.7,27.9,00.0,37.8,30.4,09.1,0000.0,0002.05,0000.55,0000.40
2022-03-02 06:28:00,,0830.2,5.00,0.00,28.7,27.9,00.0,37.8,30.4,09.1,0000.0,0002.06,0000.56,0000.40
2022-03-02 06:29:00,,0830.2,5.00,0.00,28.7,27.8,00.0,37.8,30.3,09.0,0000.0,0002.05,0000.56,0000.41
2022-03-02 06:30:00,,0830.2,5.01,0.00,28.7,27.8,00.0,37.8,30.4,09.1,0000.0,0002.08,0000.58,0000.41
2022-03-02 06:31:00,,0830.2,4.99,0.00,28.7,27.8,00.0,37.8,30.4,09.1,0000.0,0002.02,0000.58,0000.42
2022-03-02 06:32:00,,0830.2,5.00,0.00,28.7,27.8,00.0,37.8,30.4,09.0,0000.0,0001.99,0000.58,0000.42
2022-03-02 06:33:00,,0830.2,5.00,0.00,28.7,27.8,00.0,37.8,30.3,09.0,0000.0,0001.61,0000.56,0000.41
2022-03-02 06:34:00,,0830.2,5.01,0.00,28.7,27.8,00.0,37.8,30.3,09.1,0000.0,0000.87,0000.55,0000.41
2022-03-02 06:35:00,,0830.2,4.99,0.00,28.7,27.8,00.0,37.8,30.4,09.1,0000.0,0000.81,0000.54,0000.42
2022-03-02 06:36:00,,0830.2,5.00,0.00,28.6,27.8,00.0,37.8,30.3,09.2,0000.0,0000.84,0000.54,0000.42
2022-03-02 06:37:00,,0830.2,5.02,0.00,28.6,27.8,00.0,37.8,30.3,09.2,0000.0,0000.86,0000.55,0000.42
2022-03-02 06:38:00,,0830.2,5.01,0.00,28.6,27.8,00.0,37.8,30.3,09.1,0000.0,0000.82,0000.53,0000.42
2022-03-02 06:39:00,,0830.2,4.98,0.00,28.6,27.8,00.0,37.7,30.2,09.0,0000.0,0000.79,0000.52,0000.41
2022-03-02 06:40:00,,0830.1,5.01,0.00,28.6,27.7,00.0,37.7,30.2,09.0,0000.0,0000.80,0000.52,0000.40
2022-03-02 06:41:00,,0830.1,5.00,0.00,28.6,27.7,00.0,37.7,30.2,09.1,0000.0,0000.75,0000.50,0000.40
2022-03-02 06:42:00,,0830.1,4.99,0.00,28.6,27.7,00.0,37.7,30.2,09.1,0000.0,0000.69,0000.47,0000.39
2022-03-02 06:43:00,,0830.1,4.99,0.00,28.5,27.7,00.0,37.7,30.2,09.1,0000.0,0000.67,0000.46,0000.38
2022-03-02 06:44:00,,0830.1,5.01,0.00,28.5,27.7,00.0,37.7,30.2,09.2,0000.0,0000.62,0000.44,0000.37
2022-03-02 06:45:00,,0830.1,5.01,0.00,28.5,27.6,00.0,37.7,30.2,09.2,0000.0,0000.63,0000.44,0000.37
2022-03-02 06:46:00,,0830.1,4.99,0.00,28.5,27.6,00.0,37.7,30.2,09.2,0000.0,0000.65,0000.44,0000.36
2022-03-02 06:47:00,,0830.1,4.99,0.00,28.5,27.6,00.0,37.6,30.2,09.2,0000.0,0000.67,0000.45,0000.36
2022-03-02 06:48:00,,0830.0,5.01,0.00,28.5,27.6,00.0,37.6,30.1,09.1,0000.0,0000.62,0000.43,0000.35
2022-03-02 06:49:00,,0830.1,5.01,0.00,28.4,27.6,00.0,37.6,30.1,09.1,0000.0,0000.63,0000.43,0000.35
2022-03-02 06:50:00,,0830.1,4.99,0.00,28.4,27.6,00.0,37.6,30.1,09.2,0000.0,0000.65,0000.43,0000.34
2022-03-02 06:51:00,,0830.1,5.00,0.00,28.4,27.5,00.0,37.6,30.1,09.4,0000.0,0000.62,0000.42,0000.34
2022-03-02 06:52:00,,0830.1,5.00,0.00,28.4,27.5,00.0,37.6,30.0,09.5,0000.0,0000.60,0000.40,0000.33
2022-03-02 06:53:00,,0830.1,5.01,0.00,28.4,27.5,00.0,37.6,30.0,09.5,0000.0,0000.64,0000.41,0000.33
2022-03-02 06:54:00,,0830.0,4.99,0.00,28.4,27.5,00.0,37.6,30.0,09.5,0000.0,0000.71,0000.45,0000.34
2022-03-02 06:55:00,,0830.0,5.00,0.00,28.4,27.5,00.0,37.5,30.0,09.3,0000.0,0000.76,0000.47,0000.35
2022-03-02 06:56:00,,0830.1,5.00,0.00,28.4,27.5,00.0,37.5,30.0,09.3,0000.0,0000.75,0000.47,0000.34
2022-03-02 06:57:00,,0830.0,5.00,0.00,28.4,27.5,00.0,37.5,30.0,09.3,0000.0,0000.76,0000.47,0000.34
2022-03-02 06:58:00,,0830.1,5.00,0.00,28.3,27.4,00.0,37.5,29.9,09.4,0000.0,0000.69,0000.44,0000.33
2022-03-02 06:59:00,,0830.0,5.00,0.00,28.3,27.4,00.0,37.5,29.9,09.4,0000.0,0000.65,0000.43,0000.33
